This is the latest recevied weather packets stored in our database for station/object IZ1HKE-13. If no packets are shown the sender has not sent any weather packets the latest 1 day(s).
| Time | Temp. | Humidity | Pressure | Rain* | Wind** | Luminosity | Snow |
|---|---|---|---|---|---|---|---|
| 1777988130 | 15.56° C | 83% | 1019.6 hPa | 0 mm | 0 m/s | 183 W/m² | - |
| 1777987442 | 15.56° C | 81% | 1019.8 hPa | 0 mm | 0 m/s | 184 W/m² | - |
| 1777986754 | 16.11° C | 82% | 1019.8 hPa | 0 mm | 0 m/s | 275 W/m² | - |
| 1777986054 | 14.44° C | 88% | 1019.9 hPa | 0 mm | 0 m/s | 298 W/m² | - |
| 1777985367 | 15° C | 85% | 1019.9 hPa | 0 mm | 0 m/s | 283 W/m² | - |
| 1777984679 | 13.89° C | 85% | 1020.1 hPa | 0 mm | 0 m/s | 295 W/m² | - |
| 1777983992 | 13.89° C | 86% | 1020.2 hPa | 0 mm | 0 m/s | 160 W/m² | - |
| 1777983305 | 13.89° C | 90% | 1020.1 hPa | 0 mm | 0 m/s | 135 W/m² | - |
| 1777982617 | 13.33° C | 89% | 1020.1 hPa | 0 mm | 0 m/s | 102 W/m² | - |
| 1777981929 | 13.33° C | 88% | 1020.2 hPa | 0 mm | 0 m/s | 88 W/m² | - |
| 1777981242 | 13.33° C | 90% | 1020.2 hPa | 0 mm | 0 m/s | 99 W/m² | - |
| 1777980554 | 13.33° C | 90% | 1020.3 hPa | 0 mm | 0 m/s | 136 W/m² | - |
| 1777979867 | 13.33° C | 93% | 1020.3 hPa | 0 mm | 0 m/s | 168 W/m² | - |
| 1777979180 | 13.89° C | 94% | 1020.4 hPa | 0 mm | 0 m/s | 214 W/m² | - |
| 1777978492 | 13.33° C | 94% | 1020.4 hPa | 0 mm | 0.89 m/s, 294° | 174 W/m² | - |
| 1777977792 | 12.78° C | 93% | 1020.4 hPa | 0 mm | 0 m/s | 185 W/m² | - |
| 1777977105 | 12.78° C | 94% | 1020.4 hPa | 0 mm | 1.79 m/s, 6° | 153 W/m² | - |
| 1777975730 | 12.78° C | 96% | 1020.5 hPa | 0 mm | 0 m/s | 120 W/m² | - |
| 1777975042 | 12.78° C | 97% | 1020.5 hPa | 0 mm | 0 m/s | 119 W/m² | - |
| 1777974355 | 12.22° C | 97% | 1020.5 hPa | 0 mm | 0 m/s | 100 W/m² | - |
| 1777973667 | 12.22° C | 98% | 1020.5 hPa | 0 mm | 0 m/s | 95 W/m² | - |
| 1777972980 | 12.22° C | 98% | 1020.5 hPa | 0 mm | 0 m/s | 120 W/m² | - |
| 1777972292 | 12.22° C | 98% | 1020.5 hPa | 0.25 mm | 0 m/s | 104 W/m² | - |
| 1777971605 | 12.22° C | 99% | 1020.3 hPa | 0.25 mm | 0 m/s | 117 W/m² | - |
| 1777970917 | 11.67° C | 99% | 1020.4 hPa | 0.25 mm | 0 m/s | 69 W/m² | - |
* Rain latest hour (hover to see other rain measurements)
** Current wind speed in m/s (hover to see current wind gust speed)